Mobile, AL

4:27 PM CDT on October 20, 2019 (GMT -0500)
Mobile Regional

Weather History for KMOB - May, 2019

Change the Weather History Date:

Monday, May 20, 2019

  Actual Average Record
Temperature  
Mean Temperature 79 °F 75 °F  
Max Temperature 90 °F 86 °F 99 °F (1962)
Min Temperature 68 °F 65 °F 50 °F (2002)
Cooling Degree Days 14 10  
Month to date cooling degree days 203 160  
Year to date cooling degree days 440 319  
Growing Degree Days 29 (Base 50)    
Moisture  
Dew Point 72 °F    
Average Humidity 78    
Maximum Humidity 100    
Minimum Humidity 55    
Precipitation  
Precipitation 0.00 in 0.17 in 4.37 in (2017)
Month to date precipitation 3.86 3.24  
Year to date precipitation 21.28 24.94  
Sea Level Pressure  
Sea Level Pressure 30.00 in    
Wind  
Wind Speed 5 mph (South)    
Max Wind Speed 17 mph    
Max Gust Speed 21 mph    
Visibility 8 miles    
Events      
T = Trace of Precipitation, MM = Missing Value Source: NWS Daily Summary

Daily Weather History Graph

Daily Weather History Graph

Search for Another Location

Airport or City:

Astronomy

May. 20, 2019 Rise Set
Actual Time 5:55 AM CDT 7:43 PM CDT
Civil Twilight 5:28 AM CDT 8:10 PM CDT
Nautical Twilight 4:56 AM CDT 8:42 PM CDT
Astronomical Twilight 4:22 AM CDT 9:16 PM CDT
Moon 9:42 PM CDT 7:24 AM CDT
Length of Visible Light 14h 41m
Length of Day
13h 48m
Waning Gibbous, 96% of the Moon is Illuminated
May 20
Waning Gibbous
May 26
Last Quarter
Jun 3
New
Jun 10
First Quarter
Jun 17
Full

Hourly Weather History & Observations

Time (CDT) Temp. Heat Index Dew Point Humidity Pressure Visibility Wind Dir Wind Speed Gust Speed Precip Events Conditions
12:56 AM 69.1 °F - 68.0 °F 96% 30.02 in 10.0 mi Calm Calm - N/A   Clear
1:56 AM 70.0 °F - 68.0 °F 93% 30.01 in 10.0 mi Calm Calm - N/A   Clear
2:56 AM 69.1 °F - 66.9 °F 93% 30.00 in 10.0 mi Calm Calm - N/A   Partly Cloudy
3:56 AM 73.0 °F - 71.1 °F 93% 30.00 in 9.0 mi SE 3.5 mph - N/A   Mostly Cloudy
4:21 AM 72.0 °F - 71.1 °F 97% 30.00 in 8.0 mi SE 3.5 mph - N/A   Scattered Clouds
4:56 AM 71.1 °F - 71.1 °F 100% 30.01 in 3.0 mi Calm Calm - N/A   Clear
5:00 AM 71.1 °F - 71.1 °F 100% 30.01 in 1.8 mi Calm Calm - N/A   Clear
5:09 AM 70.0 °F - 69.1 °F 97% 30.02 in 0.8 mi Calm Calm - N/A   Mist
5:11 AM 70.0 °F - 69.1 °F 97% 30.02 in 1.5 mi Calm Calm - N/A   Partly Cloudy
5:13 AM 70.0 °F - 69.1 °F 97% 30.01 in 3.0 mi Calm Calm - N/A   Clear
5:56 AM 71.1 °F - 70.0 °F 96% 30.01 in 4.0 mi Calm Calm - N/A   Mostly Cloudy
5:58 AM 71.1 °F - 70.0 °F 96% 30.02 in 5.0 mi Calm Calm - N/A   Mostly Cloudy
6:08 AM 71.1 °F - 70.0 °F 96% 30.02 in 5.0 mi Calm Calm - N/A   Mostly Cloudy
6:56 AM 73.0 °F - 72.0 °F 96% 30.03 in 5.0 mi Calm Calm - N/A   Mostly Cloudy
7:56 AM 78.1 °F - 75.0 °F 90% 30.05 in 10.0 mi Calm Calm - N/A   Mostly Cloudy
8:17 AM 79.0 °F - 75.0 °F 88% 30.06 in 7.0 mi Calm Calm - N/A   Mostly Cloudy
8:25 AM 79.0 °F - 75.9 °F 90% 30.05 in 6.0 mi Calm Calm - N/A   Mostly Cloudy
8:56 AM 81.0 °F 86.7 °F 75.0 °F 82% 30.05 in 7.0 mi South 4.6 mph - N/A   Mostly Cloudy
9:31 AM 82.4 °F 88.2 °F 73.4 °F 74% 30.06 in 7.0 mi WSW 4.6 mph - N/A   Mostly Cloudy
9:56 AM 82.9 °F 88.8 °F 73.0 °F 72% 30.04 in 7.0 mi SW 4.6 mph - N/A   Mostly Cloudy
10:56 AM 86.0 °F 91.5 °F 71.1 °F 61% 30.04 in 10.0 mi Calm Calm - N/A   Mostly Cloudy
11:56 AM 88.0 °F 92.9 °F 70.0 °F 55% 30.03 in 10.0 mi SW 3.5 mph - N/A   Mostly Cloudy
12:56 PM 90.0 °F 97.9 °F 73.0 °F 57% 30.01 in 10.0 mi ESE 10.4 mph - N/A   Mostly Cloudy
1:56 PM 88.0 °F 94.7 °F 72.0 °F 59% 29.99 in 10.0 mi SE 6.9 mph - N/A   Mostly Cloudy
2:56 PM 84.9 °F 90.1 °F 71.1 °F 63% 29.98 in 10.0 mi South 13.8 mph - N/A   Mostly Cloudy
3:56 PM 81.0 °F 84.1 °F 69.1 °F 67% 29.98 in 10.0 mi WSW 9.2 mph - N/A   Scattered Clouds
4:56 PM 84.9 °F 91.4 °F 73.0 °F 67% 29.96 in 10.0 mi South 9.2 mph - N/A   Scattered Clouds
5:56 PM 84.0 °F 90.2 °F 73.0 °F 69% 29.96 in 10.0 mi South 11.5 mph - N/A   Scattered Clouds
6:56 PM 82.0 °F 86.7 °F 72.0 °F 71% 29.95 in 10.0 mi SSW 9.2 mph - N/A   Clear
7:56 PM 79.0 °F - 73.9 °F 84% 29.95 in 10.0 mi South 5.8 mph - N/A   Clear
8:56 PM 78.1 °F - 73.9 °F 87% 29.95 in 10.0 mi SSE 4.6 mph - N/A   Clear
9:56 PM 77.0 °F - 73.9 °F 90% 29.94 in 10.0 mi South 5.8 mph - N/A   Clear
10:56 PM 75.9 °F - 73.9 °F 94% 29.93 in 10.0 mi South 4.6 mph - N/A   Clear
11:56 PM 75.0 °F - 73.9 °F 96% 29.92 in 10.0 mi SSE 4.6 mph - N/A   Clear